TimeCST,TemperatureF,Dew PointF,Humidity,Sea Level PressureIn,VisibilityMPH,Wind Direction,Wind SpeedMPH,Gust SpeedMPH,PrecipitationIn,Events,Conditions,WindDirDegrees,DateUTC
12:53 AM,27.0,21.0,78,29.91,10.0,NW,15.0,-,N/A,,Clear,320,2013-02-26 06:53:00
1:53 AM,25.0,19.9,81,29.91,10.0,NW,9.2,-,N/A,,Clear,310,2013-02-26 07:53:00
2:53 AM,23.0,18.0,81,29.91,10.0,West,3.5,-,N/A,,Clear,270,2013-02-26 08:53:00
3:53 AM,21.9,17.1,82,29.89,10.0,NNW,9.2,-,N/A,,Clear,340,2013-02-26 09:53:00
4:53 AM,24.1,19.0,81,29.85,10.0,North,3.5,-,N/A,,Clear,10,2013-02-26 10:53:00
5:53 AM,21.9,17.1,82,29.85,10.0,WNW,8.1,-,N/A,,Clear,290,2013-02-26 11:53:00
6:53 AM,21.0,16.0,81,29.88,10.0,WNW,9.2,-,N/A,,Clear,290,2013-02-26 12:53:00
7:53 AM,21.0,16.0,81,29.91,10.0,WNW,10.4,-,N/A,,Clear,290,2013-02-26 13:53:00
8:53 AM,26.1,19.9,78,29.88,10.0,West,3.5,-,N/A,,Clear,260,2013-02-26 14:53:00
9:53 AM,30.9,23.0,72,29.86,10.0,NW,5.8,-,N/A,,Clear,320,2013-02-26 15:53:00
10:53 AM,35.1,24.1,64,29.84,10.0,WNW,3.5,-,N/A,,Clear,300,2013-02-26 16:53:00
11:53 AM,37.0,25.0,62,29.85,10.0,Calm,Calm,-,N/A,,Clear,0,2013-02-26 17:53:00
12:53 PM,36.0,27.0,70,29.83,10.0,SSW,5.8,-,N/A,,Clear,200,2013-02-26 18:53:00
1:53 PM,37.0,27.0,67,29.79,10.0,SSE,6.9,-,N/A,,Clear,160,2013-02-26 19:53:00
2:53 PM,37.0,28.0,70,29.81,10.0,South,8.1,-,N/A,,Clear,170,2013-02-26 20:53:00
3:53 PM,37.0,27.0,67,29.82,10.0,South,8.1,-,N/A,,Clear,170,2013-02-26 21:53:00
4:53 PM,36.0,27.0,70,29.84,10.0,South,9.2,-,N/A,,Clear,180,2013-02-26 22:53:00
5:53 PM,34.0,27.0,75,29.86,10.0,SSE,4.6,-,N/A,,Mostly Cloudy,160,2013-02-26 23:53:00
6:53 PM,33.1,27.0,78,29.88,10.0,South,5.8,-,N/A,,Overcast,170,2013-02-27 00:53:00
7:53 PM,32.0,27.0,82,29.91,10.0,SSW,4.6,-,N/A,,Clear,200,2013-02-27 01:53:00
8:53 PM,33.1,27.0,78,29.93,10.0,West,8.1,-,N/A,,Overcast,270,2013-02-27 02:53:00
9:53 PM,32.0,26.1,79,29.92,10.0,West,8.1,-,N/A,,Overcast,280,2013-02-27 03:53:00
10:53 PM,35.1,30.0,82,29.92,10.0,NW,12.7,-,N/A,,Overcast,320,2013-02-27 04:53:00
11:53 PM,35.1,30.9,85,29.94,10.0,NW,15.0,-,N/A,,Overcast,320,2013-02-27 05:53:00